Date String (YYYY-MM-DD hh:mm:ss) UTC,Instrument flags,Ambient pressure (hPa),Sample flow (lpm),Bypass flow (lpm),Sample temperature (°C),Ambient temperature (°C),ASC tube jacket temperature (°C),LED temperature (°C),Box temperature (°C),Sample RH (%),Span deviation,Mass concentration (μg/m³),Mass concentration (μg/m³),Mass concentration (μg/m³)
DateTimeUTC,F1_M11,P_M11,Q1_M11,Q2_M11,T1_M11,T2_M11,T3_M11,T4_M11,T5_M11,U1_M11,ZSPAN_M11,X0_M11,X2_M11,X1_M11
2022-07-24 11:00:00,,0829.3,5.00,0.00,30.2,29.0,00.0,39.0,32.1,32.7,0000.0,0011.11,0005.74,0004.94
2022-07-24 11:01:00,,0829.3,4.99,0.00,30.2,29.0,00.0,39.0,32.1,32.7,0000.0,0011.37,0005.76,0004.94
2022-07-24 11:02:00,,0829.3,5.00,0.00,30.2,29.1,00.0,39.0,32.1,32.9,0000.0,0011.28,0005.74,0004.95
2022-07-24 11:03:00,,0829.3,5.01,0.00,30.2,29.0,00.0,39.0,32.1,33.1,0000.0,0011.10,0005.74,0004.96
2022-07-24 11:04:00,,0829.3,5.00,0.00,30.2,28.4,00.0,38.9,32.1,33.0,0000.0,0010.83,0005.78,0004.96
2022-07-24 11:05:00,,0829.2,5.01,0.00,30.2,27.8,00.0,38.9,32.0,33.0,0000.0,0010.98,0005.80,0004.97
2022-07-24 11:06:00,,0829.3,5.00,0.00,30.1,27.5,00.0,38.9,31.8,33.2,0000.0,0010.97,0005.81,0004.97
2022-07-24 11:07:00,,0829.2,5.00,0.00,30.0,27.5,00.0,38.9,31.7,33.4,0000.0,0010.84,0005.79,0004.97
2022-07-24 11:08:00,,0829.3,5.01,0.00,30.0,27.6,00.0,38.8,31.7,33.5,0000.0,0010.35,0005.77,0004.97
2022-07-24 11:09:00,,0829.2,5.00,0.00,29.9,27.7,00.0,38.8,31.6,33.7,0000.0,0010.19,0005.75,0004.97
2022-07-24 11:10:00,,0829.3,5.00,0.00,29.9,27.9,00.0,38.8,31.6,33.5,0000.0,0011.11,0005.76,0004.97
2022-07-24 11:11:00,,0829.3,5.00,0.00,29.9,28.0,00.0,38.8,31.7,33.2,0000.0,0011.15,0005.77,0004.96
2022-07-24 11:12:00,,0829.3,4.99,0.00,29.9,28.1,00.0,38.8,31.7,33.3,0000.0,0010.89,0005.77,0004.95
2022-07-24 11:13:00,,0829.3,5.00,0.00,29.9,28.2,00.0,38.8,31.7,33.3,0000.0,0011.20,0005.81,0004.94
2022-07-24 11:14:00,,0829.3,5.00,0.00,29.9,28.3,00.0,38.8,31.7,33.2,0000.0,0011.51,0005.85,0004.93
2022-07-24 11:15:00,,0829.3,5.00,0.00,29.9,28.4,00.0,38.8,31.8,33.1,0000.0,0011.50,0005.81,0004.90
2022-07-24 11:16:00,,0829.2,5.00,0.00,29.9,28.4,00.0,38.8,31.7,33.1,0000.0,0011.83,0005.79,0004.88
2022-07-24 11:17:00,,0829.2,5.00,0.00,29.9,28.5,00.0,38.8,31.7,33.3,0000.0,0011.87,0005.79,0004.86
2022-07-24 11:18:00,,0829.2,5.00,0.00,29.9,28.5,00.0,38.8,31.8,33.1,0000.0,0012.00,0005.77,0004.83
2022-07-24 11:19:00,,0829.3,5.00,0.00,29.9,28.6,00.0,38.8,31.8,33.2,0000.0,0012.08,0005.74,0004.81
2022-07-24 11:20:00,,0829.2,5.00,0.00,29.9,28.6,00.0,38.8,31.8,33.0,0000.0,0012.15,0005.73,0004.78
2022-07-24 11:21:00,,0829.2,5.00,0.00,30.0,28.7,00.0,38.8,31.9,33.1,0000.0,0011.41,0005.73,0004.75
2022-07-24 11:22:00,,0829.2,5.00,0.00,30.0,28.7,00.0,38.8,31.9,33.3,0000.0,0010.90,0005.71,0004.74
2022-07-24 11:23:00,,0829.2,4.99,0.00,30.0,28.7,00.0,38.8,31.9,33.1,0000.0,0011.03,0005.75,0004.74
2022-07-24 11:24:00,,0829.2,5.00,0.00,30.0,28.8,00.0,38.8,31.9,33.1,0000.0,0011.03,0005.71,0004.72
2022-07-24 11:25:00,,0829.3,5.00,0.00,30.0,28.8,00.0,38.8,31.9,33.1,0000.0,0010.91,0005.70,0004.71
2022-07-24 11:26:00,,0829.4,5.00,0.00,30.0,28.8,00.0,38.8,31.9,32.9,0000.0,0010.91,0005.70,0004.71
2022-07-24 11:27:00,,0829.4,5.00,0.00,30.0,28.8,00.0,38.8,32.0,32.7,0000.0,0010.66,0005.68,0004.70
2022-07-24 11:28:00,,0829.3,5.00,0.00,30.1,28.9,00.0,38.8,32.0,32.7,0000.0,0011.22,0005.68,0004.69
2022-07-24 11:29:00,,0829.3,5.00,0.00,30.1,28.9,00.0,38.8,32.0,32.6,0000.0,0011.20,0005.64,0004.69
2022-07-24 11:30:00,,0829.4,4.99,0.00,30.1,28.9,00.0,38.8,32.0,32.6,0000.0,0011.21,0005.67,0004.69
2022-07-24 11:31:00,,0829.4,5.00,0.00,30.1,28.9,00.0,38.9,32.0,32.6,0000.0,0011.06,0005.65,0004.70
2022-07-24 11:32:00,,0829.3,5.00,0.00,30.1,29.0,00.0,38.9,32.0,32.5,0000.0,0011.02,0005.64,0004.70
2022-07-24 11:33:00,,0829.3,5.00,0.00,30.1,29.0,00.0,38.9,32.0,32.3,0000.0,0011.07,0005.65,0004.70
2022-07-24 11:34:00,,0829.3,4.99,0.00,30.1,29.0,00.0,38.9,32.0,32.2,0000.0,0011.05,0005.60,0004.69
2022-07-24 11:35:00,,0829.4,4.99,0.00,30.2,29.0,00.0,38.9,32.0,32.1,0000.0,0011.27,0005.56,0004.69
2022-07-24 11:36:00,,0829.4,5.00,0.00,30.2,29.0,00.0,38.9,32.1,32.0,0000.0,0011.42,0005.57,0004.68
2022-07-24 11:37:00,,0829.4,5.00,0.00,30.2,29.0,00.0,39.0,32.1,32.0,0000.0,0011.53,0005.57,0004.66
2022-07-24 11:38:00,,0829.5,5.00,0.00,30.2,29.1,00.0,39.0,32.1,32.0,0000.0,0011.51,0005.57,0004.65
2022-07-24 11:39:00,,0829.5,5.00,0.00,30.2,29.1,00.0,39.0,32.1,31.9,0000.0,0010.99,0005.58,0004.65
2022-07-24 11:40:00,,0829.5,5.00,0.00,30.2,29.1,00.0,39.0,32.1,31.9,0000.0,0011.06,0005.63,0004.65
2022-07-24 11:41:00,,0829.5,5.01,0.00,30.2,29.1,00.0,39.0,32.1,31.8,0000.0,0011.12,0005.65,0004.65
2022-07-24 11:42:00,,0829.5,5.01,0.00,30.2,29.1,00.0,39.0,32.1,31.7,0000.0,0011.29,0005.68,0004.64
2022-07-24 11:43:00,,0829.5,5.00,0.00,30.3,28.4,00.0,38.9,32.1,31.7,0000.0,0011.56,0005.70,0004.64
2022-07-24 11:44:00,,0829.5,5.01,0.00,30.2,27.8,00.0,38.9,32.0,31.7,0000.0,0012.31,0005.65,0004.64
2022-07-24 11:45:00,,0829.5,5.00,0.00,30.2,27.6,00.0,38.9,31.8,31.7,0000.0,0012.26,0005.64,0004.63
2022-07-24 11:46:00,,0829.5,5.00,0.00,30.0,27.6,00.0,38.9,31.7,32.0,0000.0,0011.71,0005.67,0004.63
2022-07-24 11:47:00,,0829.5,4.98,0.00,30.0,27.7,00.0,38.8,31.7,32.1,0000.0,0011.48,0005.66,0004.62
2022-07-24 11:48:00,,0829.6,5.01,0.00,30.0,27.8,00.0,38.8,31.7,32.2,0000.0,0011.28,0005.65,0004.63
2022-07-24 11:49:00,,0829.9,5.00,0.00,29.9,27.9,00.0,38.8,31.7,34.0,0000.0,0011.17,0005.65,0004.65
2022-07-24 11:50:00,,0829.6,4.99,0.00,30.0,28.0,00.0,38.8,31.8,35.8,0000.0,0011.03,0005.66,0004.72
2022-07-24 11:51:00,,0829.6,4.99,0.00,30.2,28.2,00.0,38.8,31.9,35.5,0000.0,0010.86,0005.68,0004.80
2022-07-24 11:52:00,,0829.6,5.00,0.00,30.6,28.3,00.0,38.8,32.1,34.7,0000.0,0010.94,0005.69,0004.88
2022-07-24 11:53:00,,0829.6,5.00,0.00,30.8,28.4,00.0,38.8,32.1,34.3,0000.0,0011.43,0005.74,0004.95
2022-07-24 11:54:00,,0829.6,5.00,0.00,31.0,28.4,00.0,38.9,32.1,34.2,0000.0,0011.33,0005.81,0005.02
2022-07-24 11:55:00,,0829.6,5.00,0.00,31.0,28.5,00.0,38.9,32.1,34.1,0000.0,0010.41,0005.88,0005.11
2022-07-24 11:56:00,,0829.6,5.01,0.00,31.1,28.6,00.0,39.0,32.1,34.0,0000.0,0010.34,0005.94,0005.21
2022-07-24 11:57:00,,0829.6,5.00,0.00,31.1,28.7,00.0,39.1,32.1,34.0,0000.0,0010.66,0005.98,0005.31
2022-07-24 11:58:00,,0829.6,5.00,0.00,31.1,28.7,00.0,39.2,32.1,33.9,0000.0,0010.72,0006.08,0005.41
2022-07-24 11:59:00,,0829.6,5.00,0.00,31.1,28.8,00.0,39.2,32.1,33.8,0000.0,0011.20,0006.23,0005.51
